Location: Newark
(45.5000°N, 11.4167°E)
Time: 03:31:33
(UTC+00:00)

Vanguard 2 - Pass Details

Date: 29 August 2019
Orbit: 554 x 2937 km, 32.9° (Epoch: 21 September)

Event Time Altitude Azimuth Distance (km) Brightness Sun altitude
Rises 15:42:18 0° 257° (WSW) 4,085 12.7 22.9°
Reaches altitude 10° 15:46:13 10° 236° (SW) 3,530 12.3 22.2°
Maximum altitude 15:51:16 16° 203° (SSW) 3,581 11.5 21.3°
Drops below altitude 10° 15:57:35 10° 171° (S) 4,606 11.5 20.2°
Sets 16:04:10 0° 154° (SSE) 6,103 11.9 19.1°
